Total_Precipitation_Accumulation
0.21 0.21 0.23 0.21 0.21 0.22 0.27 0.39 0.54 0.40 0.14 0.11 0.19 0.20 0.20 0.23 0.28 0.32 0.30 0.31 0.37 0.40 0.43 0.50 0.59 0.67 0.77 1.01 1.50 2.15 2.67 3.00 2.91 2.53 2.14 1.96 2.13 2.42
0.29 0.29 0.29 0.28 0.28 0.27 0.27 0.30 0.41 0.55 0.37 0.11 0.16 0.22 0.26 0.27 0.31 0.31 0.31 0.34 0.35 0.39 0.41 0.44 0.50 0.57 0.67 0.80 0.98 1.40 2.00 2.47 2.80 2.90 2.73 2.48 2.36 2.51
0.34 0.37 0.38 0.38 0.38 0.36 0.35 0.35 0.37 0.49 0.50 0.17 0.10 0.17 0.28 0.33 0.33 0.30 0.28 0.28 0.26 0.31 0.39 0.43 0.47 0.51 0.56 0.67 0.79 0.99 1.43 1.90 2.30 2.73 2.99 2.91 2.70 2.57
0.39 0.43 0.44 0.44 0.46 0.45 0.46 0.44 0.42 0.44 0.52 0.33 0.14 0.14 0.23 0.31 0.36 0.35 0.29 0.26 0.24 0.26 0.35 0.43 0.47 0.51 0.53 0.57 0.64 0.79 1.05 1.50 1.85 2.13 2.52 2.72 2.68 2.71
0.37 0.42 0.47 0.52 0.56 0.54 0.54 0.52 0.47 0.41 0.42 0.41 0.23 0.17 0.21 0.28 0.33 0.37 0.35 0.32 0.28 0.28 0.31 0.39 0.48 0.51 0.53 0.55 0.58 0.63 0.72 0.94 1.34 1.79 2.20 2.54 2.58 2.54
0.37 0.40 0.46 0.55 0.62 0.67 0.71 0.63 0.54 0.53 0.49 0.45 0.32 0.24 0.23 0.27 0.37 0.42 0.41 0.40 0.39 0.34 0.32 0.33 0.41 0.48 0.48 0.47 0.47 0.53 0.61 0.79 1.09 1.48 1.81 2.19 2.41 2.39
0.41 0.42 0.46 0.57 0.72 0.87 0.95 0.87 0.79 0.74 0.63 0.56 0.45 0.35 0.32 0.37 0.44 0.45 0.48 0.44 0.46 0.47 0.42 0.34 0.33 0.34 0.38 0.43 0.47 0.49 0.57 0.67 0.80 1.06 1.43 1.74 2.08 2.31
0.46 0.42 0.40 0.45 0.52 0.63 0.80 0.83 0.85 0.85 0.82 0.74 0.66 0.56 0.44 0.42 0.46 0.57 0.64 0.62 0.56 0.46 0.41 0.38 0.38 0.40 0.37 0.38 0.46 0.48 0.50 0.55 0.64 0.80 1.01 1.29 1.57 1.95
0.38 0.33 0.32 0.32 0.33 0.34 0.41 0.46 0.54 0.65 0.78 0.86 0.88 0.75 0.61 0.53 0.60 0.71 0.75 0.73 0.60 0.54 0.52 0.55 0.49 0.46 0.43 0.47 0.55 0.50 0.51 0.54 0.57 0.62 0.77 0.99 1.21 1.50
0.30 0.31 0.33 0.31 0.30 0.33 0.38 0.39 0.38 0.42 0.59 0.76 0.88 0.81 0.74 0.70 0.75 0.85 0.92 0.95 0.82 0.72 0.70 0.77 0.67 0.57 0.52 0.51 0.58 0.54 0.50 0.51 0.54 0.59 0.65 0.76 0.95 1.19
0.27 0.37 0.41 0.36 0.33 0.37 0.48 0.46 0.35 0.31 0.36 0.58 0.76 0.77 0.75 0.85 0.97 1.14 1.24 1.28 1.22 1.05 0.94 0.97 0.90 0.74 0.66 0.60 0.60 0.64 0.61 0.56 0.55 0.58 0.63 0.68 0.77 0.98
0.26 0.36 0.53 0.49 0.41 0.39 0.46 0.43 0.36 0.28 0.26 0.29 0.37 0.47 0.54 0.61 0.81 1.09 1.21 1.20 1.22 1.24 1.12 1.07 1.06 0.95 0.90 0.76 0.62 0.55 0.57 0.65 0.66 0.65 0.69 0.73 0.79 0.83
0.30 0.38 0.51 0.46 0.41 0.37 0.38 0.37 0.35 0.32 0.29 0.26 0.26 0.28 0.36 0.48 0.62 0.87 1.06 1.10 1.12 1.14 1.07 1.09 1.15 1.06 0.94 0.84 0.70 0.61 0.52 0.50 0.53 0.64 0.74 0.82 0.88 0.88
0.32 0.31 0.37 0.35 0.34 0.32 0.30 0.31 0.30 0.30 0.32 0.27 0.22 0.20 0.22 0.31 0.45 0.62 0.85 0.96 1.01 1.03 0.98 1.00 1.09 1.04 0.92 0.76 0.68 0.70 0.65 0.58 0.51 0.52 0.59 0.83 0.97 1.00
0.34 0.45 0.37 0.27 0.23 0.20 0.19 0.22 0.24 0.26 0.30 0.26 0.18 0.13 0.14 0.20 0.29 0.42 0.58 0.75 0.85 0.90 0.92 0.91 0.94 0.99 0.99 0.83 0.62 0.63 0.72 0.75 0.66 0.57 0.58 0.65 0.76 0.87
0.25 0.31 0.28 0.19 0.14 0.11 0.10 0.12 0.15 0.20 0.24 0.22 0.15 0.10 0.10 0.14 0.21 0.32 0.46 0.60 0.75 0.83 0.87 0.92 0.98 1.08 1.12 0.94 0.75 0.66 0.67 0.79 0.80 0.68 0.62 0.62 0.67 0.71
0.32 0.27 0.22 0.19 0.17 0.14 0.10 0.07 0.08 0.13 0.17 0.17 0.15 0.14 0.14 0.15 0.18 0.25 0.40 0.53 0.68 0.77 0.85 0.99 1.10 1.19 1.26 1.23 1.10 0.89 0.75 0.74 0.80 0.79 0.70 0.71 0.76 0.75
0.33 0.29 0.20 0.15 0.14 0.12 0.10 0.08 0.07 0.08 0.10 0.13 0.15 0.16 0.16 0.17 0.19 0.22 0.34 0.47 0.58 0.65 0.75 0.91 1.11 1.31 1.50 1.57 1.38 1.11 0.90 0.83 0.91 0.96 0.84 0.76 0.80 0.77
0.26 0.21 0.15 0.12 0.11 0.10 0.09 0.08 0.07 0.06 0.08 0.12 0.14 0.15 0.17 0.20 0.22 0.25 0.31 0.42 0.52 0.61 0.70 0.81 1.01 1.28 1.44 1.50 1.54 1.31 1.03 0.89 0.97 1.14 1.08 0.84 0.73 0.70
0.16 0.15 0.12 0.10 0.10 0.10 0.09 0.09 0.08 0.08 0.10 0.11 0.12 0.13 0.17 0.23 0.25 0.26 0.31 0.43 0.52 0.61 0.71 0.82 1.00 1.16 1.27 1.15 1.18 1.35 1.25 1.04 1.00 1.15 1.18 0.98 0.87 0.93
0.11 0.11 0.11 0.12 0.12 0.11 0.10 0.09 0.09 0.09 0.09 0.10 0.11 0.12 0.15 0.22 0.26 0.25 0.29 0.40 0.56 0.66 0.73 0.80 0.96 1.13 1.25 1.26 1.27 1.35 1.40 1.35 1.17 1.11 1.07 1.00 0.98 1.02
0.13 0.13 0.12 0.12 0.13 0.12 0.11 0.10 0.10 0.09 0.09 0.10 0.11 0.13 0.15 0.22 0.25 0.26 0.31 0.41 0.52 0.61 0.69 0.77 0.90 1.15 1.43 1.51 1.45 1.37 1.40 1.45 1.52 1.44 1.27 1.00 0.86 0.84
0.17 0.15 0.13 0.13 0.13 0.13 0.12 0.11 0.10 0.09 0.08 0.10 0.12 0.14 0.17 0.23 0.24 0.28 0.33 0.40 0.49 0.56 0.63 0.76 0.94 1.17 1.41 1.45 1.43 1.38 1.29 1.26 1.33 1.43 1.60 1.42 1.01 0.74